TimeEDT,TemperatureF,Dew PointF,Humidity,Sea Level PressureIn,VisibilityMPH,Wind Direction,Wind SpeedMPH,Gust SpeedMPH,PrecipitationIn,Events,Conditions,WindDirDegrees,DateUTC
12:15 AM,50.0,33.8,54,30.21,10.0,Calm,Calm,-,N/A,,Clear,0,2013-05-25 04:15:00
12:35 AM,46.4,37.4,71,30.21,10.0,Calm,Calm,-,N/A,,Clear,0,2013-05-25 04:35:00
1:15 AM,42.8,41.0,93,30.21,10.0,Calm,Calm,-,N/A,,Clear,0,2013-05-25 05:15:00
1:35 AM,42.8,41.0,93,30.21,10.0,Calm,Calm,-,N/A,,Clear,0,2013-05-25 05:35:00
1:55 AM,42.8,41.0,93,30.21,10.0,Calm,Calm,-,N/A,,Clear,0,2013-05-25 05:55:00
2:15 AM,42.8,41.0,93,30.22,10.0,Calm,Calm,-,N/A,,Clear,0,2013-05-25 06:15:00
2:35 AM,41.0,41.0,100,30.22,10.0,Calm,Calm,-,N/A,,Clear,0,2013-05-25 06:35:00
2:55 AM,41.0,41.0,100,30.22,10.0,Calm,Calm,-,N/A,,Clear,0,2013-05-25 06:55:00
3:15 AM,41.0,41.0,100,30.22,10.0,Calm,Calm,-,N/A,,Clear,0,2013-05-25 07:15:00
3:35 AM,41.0,41.0,100,30.22,10.0,Calm,Calm,-,N/A,,Clear,0,2013-05-25 07:35:00
3:55 AM,39.2,39.2,100,30.22,10.0,Calm,Calm,-,N/A,,Clear,0,2013-05-25 07:55:00
4:15 AM,39.2,39.2,100,30.23,10.0,Calm,Calm,-,N/A,,Clear,0,2013-05-25 08:15:00
4:35 AM,39.2,39.2,100,30.23,10.0,Calm,Calm,-,N/A,,Clear,0,2013-05-25 08:35:00
4:55 AM,39.2,39.2,100,30.24,10.0,Calm,Calm,-,N/A,,Clear,0,2013-05-25 08:55:00
5:15 AM,37.4,37.4,100,30.24,10.0,Calm,Calm,-,N/A,,Clear,0,2013-05-25 09:15:00
5:35 AM,37.4,37.4,100,30.25,7.0,Calm,Calm,-,N/A,,Clear,0,2013-05-25 09:35:00
5:55 AM,37.4,37.4,100,30.25,7.0,Calm,Calm,-,N/A,,Clear,0,2013-05-25 09:55:00
6:35 AM,39.2,39.2,100,30.26,7.0,Calm,Calm,-,N/A,,Clear,0,2013-05-25 10:35:00
6:55 AM,41.0,41.0,100,30.27,10.0,Calm,Calm,-,N/A,,Clear,0,2013-05-25 10:55:00
7:15 AM,44.6,42.8,93,30.27,10.0,Calm,Calm,-,N/A,,Clear,0,2013-05-25 11:15:00
7:35 AM,46.4,41.0,81,30.26,10.0,NNE,3.5,-,N/A,,Clear,20,2013-05-25 11:35:00
7:55 AM,48.2,39.2,71,30.26,10.0,NNE,5.8,-,N/A,,Clear,20,2013-05-25 11:55:00
8:15 AM,50.0,39.2,66,30.27,10.0,North,3.5,-,N/A,,Clear,360,2013-05-25 12:15:00
8:35 AM,51.8,37.4,58,30.27,10.0,North,5.8,-,N/A,,Clear,360,2013-05-25 12:35:00
8:55 AM,51.8,37.4,58,30.28,10.0,Calm,Calm,-,N/A,,Clear,0,2013-05-25 12:55:00
9:15 AM,53.6,35.6,51,30.28,10.0,NNW,9.2,-,N/A,,Clear,330,2013-05-25 13:15:00
9:35 AM,53.6,35.6,51,30.28,10.0,North,6.9,-,N/A,,Clear,360,2013-05-25 13:35:00
9:55 AM,55.4,37.4,51,30.28,10.0,NNW,6.9,-,N/A,,Clear,330,2013-05-25 13:55:00
10:15 AM,55.4,37.4,51,30.28,10.0,WNW,5.8,-,N/A,,Clear,290,2013-05-25 14:15:00
10:35 AM,59.0,37.4,45,30.28,10.0,NNW,3.5,-,N/A,,Clear,330,2013-05-25 14:35:00
10:55 AM,59.0,35.6,42,30.28,10.0,WNW,3.5,-,N/A,,Clear,290,2013-05-25 14:55:00
11:15 AM,59.0,37.4,45,30.28,10.0,NW,5.8,-,N/A,,Clear,310,2013-05-25 15:15:00
11:35 AM,60.8,35.6,39,30.28,10.0,WSW,5.8,-,N/A,,Clear,240,2013-05-25 15:35:00
11:55 AM,62.6,35.6,37,30.27,10.0,NW,4.6,-,N/A,,Clear,310,2013-05-25 15:55:00
12:15 PM,62.6,33.8,34,30.27,10.0,WNW,10.4,-,N/A,,Clear,290,2013-05-25 16:15:00
12:35 PM,64.4,35.6,34,30.26,10.0,West,9.2,-,N/A,,Clear,280,2013-05-25 16:35:00
12:55 PM,64.4,35.6,34,30.25,10.0,NW,5.8,-,N/A,,Clear,310,2013-05-25 16:55:00
1:15 PM,64.4,35.6,34,30.24,10.0,West,5.8,-,N/A,,Clear,270,2013-05-25 17:15:00
1:35 PM,68.0,37.4,33,30.23,10.0,West,6.9,-,N/A,,Clear,280,2013-05-25 17:35:00
1:55 PM,66.2,35.6,32,30.22,10.0,NW,3.5,-,N/A,,Clear,310,2013-05-25 17:55:00
2:15 PM,68.0,35.6,30,30.21,10.0,WNW,6.9,-,N/A,,Clear,290,2013-05-25 18:15:00
2:35 PM,69.8,35.6,28,30.20,10.0,North,-9999.0,-,N/A,,Clear,0,2013-05-25 18:35:00
2:55 PM,69.8,32.0,25,30.19,10.0,WNW,4.6,-,N/A,,Clear,290,2013-05-25 18:55:00
3:15 PM,71.6,35.6,27,30.19,10.0,West,6.9,-,N/A,,Clear,280,2013-05-25 19:15:00
3:35 PM,69.8,33.8,27,30.18,10.0,WNW,9.2,17.3,N/A,,Clear,290,2013-05-25 19:35:00
3:55 PM,71.6,32.0,23,30.18,10.0,NNW,10.4,18.4,N/A,,Clear,330,2013-05-25 19:55:00
4:15 PM,71.6,33.8,25,30.18,10.0,WNW,3.5,-,N/A,,Clear,290,2013-05-25 20:15:00
4:35 PM,69.8,32.0,25,30.18,10.0,NW,6.9,16.1,N/A,,Clear,310,2013-05-25 20:35:00
4:55 PM,71.6,33.8,25,30.17,10.0,NW,3.5,-,N/A,,Clear,310,2013-05-25 20:55:00
5:15 PM,69.8,35.6,28,30.17,10.0,Calm,Calm,-,N/A,,Clear,0,2013-05-25 21:15:00
5:35 PM,71.6,37.4,29,30.16,10.0,NNW,5.8,-,N/A,,Clear,330,2013-05-25 21:35:00
5:55 PM,69.8,35.6,28,30.16,10.0,NNW,3.5,-,N/A,,Clear,340,2013-05-25 21:55:00
6:15 PM,69.8,35.6,28,30.16,10.0,NW,4.6,-,N/A,,Clear,320,2013-05-25 22:15:00
6:35 PM,68.0,37.4,33,30.16,10.0,Calm,Calm,-,N/A,,Clear,0,2013-05-25 22:35:00
6:55 PM,66.2,35.6,32,30.17,10.0,North,-9999.0,-,N/A,,Clear,0,2013-05-25 22:55:00
7:15 PM,62.6,41.0,45,30.17,10.0,North,-9999.0,-,N/A,,Clear,0,2013-05-25 23:15:00
7:35 PM,62.6,44.6,52,30.17,10.0,North,-9999.0,-,N/A,,Clear,0,2013-05-25 23:35:00
7:55 PM,60.8,42.8,52,30.17,10.0,North,-9999.0,-,N/A,,Clear,0,2013-05-25 23:55:00
8:15 PM,57.2,50.0,77,30.18,10.0,North,-9999.0,-,N/A,,Clear,0,2013-05-26 00:15:00
8:35 PM,55.4,44.6,67,30.18,10.0,Calm,Calm,-,N/A,,Clear,0,2013-05-26 00:35:00
8:55 PM,53.6,48.2,82,30.18,10.0,Calm,Calm,-,N/A,,Clear,0,2013-05-26 00:55:00
9:15 PM,53.6,46.4,77,30.19,10.0,Calm,Calm,-,N/A,,Clear,0,2013-05-26 01:15:00
9:35 PM,53.6,46.4,77,30.20,10.0,Calm,Calm,-,N/A,,Clear,0,2013-05-26 01:35:00
9:55 PM,51.8,44.6,76,30.20,10.0,Calm,Calm,-,N/A,,Clear,0,2013-05-26 01:55:00
10:15 PM,51.8,42.8,71,30.21,10.0,Calm,Calm,-,N/A,,Clear,0,2013-05-26 02:15:00
10:35 PM,50.0,44.6,82,30.22,10.0,Calm,Calm,-,N/A,,Clear,0,2013-05-26 02:35:00
10:55 PM,48.2,44.6,87,30.22,10.0,Calm,Calm,-,N/A,,Clear,0,2013-05-26 02:55:00
11:15 PM,46.4,42.8,87,30.22,10.0,Calm,Calm,-,N/A,,Clear,0,2013-05-26 03:15:00
11:35 PM,46.4,42.8,87,30.22,10.0,Calm,Calm,-,N/A,,Clear,0,2013-05-26 03:35:00
11:55 PM,50.0,41.0,71,30.22,10.0,North,4.6,-,N/A,,Clear,10,2013-05-26 03:55:00